Find Kosmos-2382

NORAD ID: 26987 Int'l Des: 2001-053 Owner: KVR/IACG Country: RU Constellation: GLONASS operational
MEOCIRCULAR

Live Position

Loading 3D Globe...

About Kosmos-2382

Description loading...

Upcoming Passes

Passes for default location (London). Set your location on the main map for personalized predictions.

Altitude History

Loading altitude history...

Two-Line Element Set

1 26987U 01053A 26104.27847198 -.00000000 00000-0 00000+0 0 9990
2 26987 64.0457 59.7070 0003539 219.5378 241.9496 2.13104863189598
Epoch: Apr 14, 2026 • Age: 42 hours

Current Status

Altitude 19137.1 km
Velocity 3.95 km/s
Sub-Earth Point 1.68°N, 152.94°W
Launch Date Dec 1, 2001
Age 24.3 years
Type other

Technical Details

Classification Payload
Mass 1450.00 kg
Dry Mass 1200.00 kg
Total Mass 1450.00 kg
Length 4.00 m
Diameter 1.50 m
Span 7.80 m
Shape Cyl + Ant + 2 Pan
Manufacturer NPOPMR
Bus Type Uragan
Phase Status In Orbit
Owner/State KVR/IACG/RU

Most Searched